TimeCDT,TemperatureF,Dew PointF,Humidity,Sea Level PressureIn,VisibilityMPH,Wind Direction,Wind SpeedMPH,Gust SpeedMPH,PrecipitationIn,Events,Conditions,WindDirDegrees,DateUTC
12:11 AM,30.2,26.6,86,30.23,10.0,Calm,Calm,-,N/A,,Unknown,0,2012-10-30 05:11:00
12:32 AM,30.2,26.6,86,30.24,10.0,Calm,Calm,-,N/A,,Unknown,0,2012-10-30 05:32:00
12:51 AM,28.4,26.6,93,30.23,10.0,Calm,Calm,-,N/A,,Unknown,0,2012-10-30 05:51:00
1:12 AM,28.4,24.8,86,30.23,10.0,Calm,Calm,-,N/A,,Clear,0,2012-10-30 06:12:00
1:32 AM,24.8,21.2,86,30.23,10.0,Calm,Calm,-,N/A,,Clear,0,2012-10-30 06:32:00
2:32 AM,26.6,24.8,93,30.23,10.0,Calm,Calm,-,N/A,,Clear,0,2012-10-30 07:32:00
2:51 AM,26.6,24.8,93,30.23,10.0,Calm,Calm,-,N/A,,Clear,0,2012-10-30 07:51:00
3:12 AM,26.6,24.8,93,30.22,10.0,Calm,Calm,-,N/A,,Clear,0,2012-10-30 08:12:00
3:51 AM,24.8,23.0,93,30.21,10.0,Calm,Calm,-,N/A,,Clear,0,2012-10-30 08:51:00
4:12 AM,23.0,21.2,93,30.21,10.0,Calm,Calm,-,N/A,,Clear,0,2012-10-30 09:12:00
4:32 AM,21.2,21.2,100,30.21,10.0,Calm,Calm,-,N/A,,Clear,0,2012-10-30 09:32:00
4:51 AM,21.2,21.2,100,30.21,10.0,Calm,Calm,-,N/A,,Clear,0,2012-10-30 09:51:00
5:12 AM,26.6,21.2,80,30.21,10.0,Calm,Calm,-,N/A,,Clear,0,2012-10-30 10:12:00
5:32 AM,24.8,23.0,93,30.21,10.0,Calm,Calm,-,N/A,,Clear,0,2012-10-30 10:32:00
5:52 AM,23.0,21.2,93,30.21,10.0,Calm,Calm,-,N/A,,Clear,0,2012-10-30 10:52:00
6:12 AM,24.8,21.2,86,30.21,10.0,Calm,Calm,-,N/A,,Clear,0,2012-10-30 11:12:00
6:32 AM,24.8,21.2,86,30.21,10.0,Calm,Calm,-,N/A,,Clear,0,2012-10-30 11:32:00
6:52 AM,28.4,23.0,80,30.21,10.0,Calm,Calm,-,N/A,,Clear,0,2012-10-30 11:52:00
7:12 AM,24.8,21.2,86,30.21,10.0,Calm,Calm,-,N/A,,Clear,0,2012-10-30 12:12:00
7:32 AM,26.6,21.2,80,30.20,10.0,Calm,Calm,-,N/A,,Clear,0,2012-10-30 12:32:00
7:52 AM,24.8,21.2,86,30.20,10.0,Calm,Calm,-,N/A,,Clear,0,2012-10-30 12:52:00
8:12 AM,23.0,21.2,93,30.20,10.0,Calm,Calm,-,N/A,,Clear,0,2012-10-30 13:12:00
8:32 AM,24.8,23.0,93,30.21,7.0,Calm,Calm,-,N/A,,Clear,0,2012-10-30 13:32:00
8:51 AM,26.6,24.8,93,30.20,7.0,Calm,Calm,-,N/A,,Clear,0,2012-10-30 13:51:00
9:12 AM,30.2,26.6,86,30.20,7.0,Calm,Calm,-,N/A,,Clear,0,2012-10-30 14:12:00
9:31 AM,33.8,26.6,75,30.21,10.0,NE,3.5,-,N/A,,Clear,40,2012-10-30 14:31:00
9:52 AM,35.6,28.4,75,30.20,10.0,NE,3.5,-,N/A,,Clear,40,2012-10-30 14:52:00
10:12 AM,37.4,28.4,70,30.19,10.0,NE,4.6,-,N/A,,Clear,50,2012-10-30 15:12:00
10:31 AM,37.4,30.2,75,30.19,10.0,NE,9.2,-,N/A,,Clear,50,2012-10-30 15:31:00
10:52 AM,39.2,30.2,70,30.19,10.0,ENE,9.2,-,N/A,,Clear,60,2012-10-30 15:52:00
11:12 AM,41.0,30.2,65,30.18,10.0,NE,8.1,-,N/A,,Clear,50,2012-10-30 16:12:00
11:31 AM,41.0,30.2,65,30.17,10.0,NE,9.2,-,N/A,,Clear,50,2012-10-30 16:31:00
11:52 AM,42.8,30.2,61,30.16,10.0,NNE,9.2,-,N/A,,Clear,30,2012-10-30 16:52:00
12:12 PM,42.8,30.2,61,30.15,10.0,NNE,8.1,-,N/A,,Clear,30,2012-10-30 17:12:00
12:31 PM,42.8,28.4,57,30.14,10.0,NNE,6.9,-,N/A,,Clear,30,2012-10-30 17:31:00
12:52 PM,44.6,28.4,53,30.13,10.0,North,8.1,-,N/A,,Clear,360,2012-10-30 17:52:00
1:12 PM,44.6,28.4,53,30.13,10.0,North,8.1,-,N/A,,Clear,10,2012-10-30 18:12:00
1:31 PM,44.6,28.4,53,30.12,10.0,North,4.6,-,N/A,,Clear,350,2012-10-30 18:31:00
1:52 PM,46.4,28.4,50,30.11,10.0,NW,8.1,-,N/A,,Clear,320,2012-10-30 18:52:00
2:12 PM,46.4,28.4,50,30.09,10.0,NW,9.2,-,N/A,,Clear,310,2012-10-30 19:12:00
2:31 PM,46.4,28.4,50,30.08,10.0,North,8.1,-,N/A,,Clear,360,2012-10-30 19:31:00
2:52 PM,48.2,26.6,43,30.08,10.0,NNW,11.5,18.4,N/A,,Clear,340,2012-10-30 19:52:00
3:11 PM,48.2,26.6,43,30.08,10.0,North,11.5,-,N/A,,Clear,350,2012-10-30 20:11:00
3:32 PM,48.2,26.6,43,30.07,10.0,NNW,11.5,-,N/A,,Clear,340,2012-10-30 20:32:00
3:52 PM,46.4,24.8,43,30.07,10.0,North,11.5,-,N/A,,Clear,10,2012-10-30 20:52:00
4:11 PM,46.4,24.8,43,30.07,10.0,North,12.7,-,N/A,,Clear,10,2012-10-30 21:11:00
4:32 PM,46.4,24.8,43,30.06,10.0,North,12.7,-,N/A,,Clear,360,2012-10-30 21:32:00
4:52 PM,46.4,23.0,40,30.06,10.0,North,10.4,-,N/A,,Clear,360,2012-10-30 21:52:00
5:11 PM,46.4,24.8,43,30.07,10.0,North,8.1,-,N/A,,Clear,350,2012-10-30 22:11:00
5:32 PM,44.6,24.8,46,30.07,10.0,North,6.9,-,N/A,,Clear,360,2012-10-30 22:32:00
5:52 PM,44.6,24.8,46,30.06,10.0,North,5.8,-,N/A,,Scattered Clouds,350,2012-10-30 22:52:00
6:11 PM,42.8,26.6,53,30.07,10.0,North,8.1,-,N/A,,Unknown,350,2012-10-30 23:11:00
6:32 PM,41.0,24.8,53,30.07,10.0,North,5.8,-,N/A,,Unknown,360,2012-10-30 23:32:00
6:52 PM,41.0,24.8,53,30.06,10.0,North,6.9,-,N/A,,Unknown,360,2012-10-30 23:52:00
7:11 PM,39.2,23.0,52,30.06,10.0,North,6.9,-,N/A,,Clear,360,2012-10-31 00:11:00
7:32 PM,39.2,21.2,49,30.06,10.0,North,6.9,-,N/A,,Clear,360,2012-10-31 00:32:00
7:52 PM,37.4,21.2,52,30.06,10.0,North,4.6,-,N/A,,Clear,360,2012-10-31 00:52:00
8:11 PM,37.4,21.2,52,30.07,10.0,North,6.9,-,N/A,,Clear,360,2012-10-31 01:11:00
8:32 PM,37.4,21.2,52,30.07,10.0,North,8.1,-,N/A,,Clear,360,2012-10-31 01:32:00
8:52 PM,35.6,21.2,56,30.07,10.0,North,5.8,-,N/A,,Clear,360,2012-10-31 01:52:00
9:11 PM,35.6,19.4,52,30.08,10.0,North,6.9,-,N/A,,Clear,360,2012-10-31 02:11:00
9:32 PM,35.6,19.4,52,30.08,10.0,North,8.1,-,N/A,,Clear,10,2012-10-31 02:32:00
9:52 PM,33.8,19.4,56,30.08,10.0,North,5.8,-,N/A,,Clear,10,2012-10-31 02:52:00
10:11 PM,33.8,17.6,52,30.08,10.0,North,4.6,-,N/A,,Clear,10,2012-10-31 03:11:00
10:32 PM,33.8,17.6,52,30.07,10.0,NNE,6.9,-,N/A,,Clear,20,2012-10-31 03:32:00
10:52 PM,32.0,17.6,55,30.07,10.0,NNE,4.6,-,N/A,,Clear,20,2012-10-31 03:52:00
11:11 PM,32.0,17.6,55,30.06,10.0,North,3.5,-,N/A,,Clear,360,2012-10-31 04:11:00
11:32 PM,28.4,17.6,64,30.06,10.0,North,3.5,-,N/A,,Clear,360,2012-10-31 04:32:00
11:52 PM,26.6,17.6,69,30.06,10.0,NNW,3.5,-,N/A,,Clear,340,2012-10-31 04:52:00